Regional Weather Roundup
Issued by NWS Portland, ME

Home | Current Version | Previous Version | Text Only | Print | Product List | Glossary On
Versions: 1 2 3 4 5 6 7 8 9 10 11 12 13 14 15 16 17 18 19 20 21 22 23 24 25 26 27 28 29 30 31 32 33 34 35 36 37 38 39 40 41 42 43 44 45 46 47 48 49 50
000
ASUS41 KGYX 250210
RWRGYX
WEATHER ROUNDUP FOR MAINE AND NEW HAMPSHIRE
NATIONAL WEATHER SERVICE GRAY ME
900 PM EST SAT FEB 24 2018

MEZ002-005-006-010-012-015-018-020-021-024-026-027-029-250300-
MAINE

CITY           SKY/WX    TMP DP  RH WIND       PRES   REMARKS
PORTLAND       FAIR      35  26  69 VRB7      30.25R
SANFORD        FAIR      27  24  89 CALM      30.26R
BAR HARBOR     FAIR      34  21  59 NW9       30.25R
WISCASSET      FAIR      36  25  64 CALM      30.26R
ROCKLAND       FAIR      37  23  56 VRB3      30.25R
FRYEBURG       FAIR      28  26  92 SW3       30.25R
LEWISTONAUBURN FAIR      36  23  59 N15       30.24R
AUGUSTA        FAIR      34  22  61 N9        30.26R
WATERVILLE     FAIR      33  21  61 N9        30.23R
BANGOR         FAIR      32  22  66 N10       30.27R
GREENVILLE       N/A     26  17  68 NW9       30.19R
MILLINOCKET    FAIR      30  16  56 NW5       30.25R
HOULTON        FAIR      28  11  48 N9        30.21R
PRESQUE ISLE   FAIR      25   5  42 N10       30.25R WCI  15
FRENCHVILLE    FAIR      19  -1  41 NW14      30.23R WCI   6
CARIBOU        FAIR      21   2  43 NW7       30.23R
$$

NHZ002-005-008-009-011-012-014-250300-
NEW HAMPSHIRE

CITY           SKY/WX    TMP DP  RH WIND       PRES   REMARKS
PORTSMOUTH     MOCLDY    38  26  62 NW6       30.24R
ROCHESTER      FAIR      37  27  67 VRB3      30.24R
NASHUA         FAIR      40  29  64 NW8       30.26R
MANCHESTER     MOCLDY    39  27  62 CALM      30.24R
CONCORD        FAIR      33  26  75 CALM      30.25R
LACONIA        FAIR      34  24  67 NW5       30.23R
PLYMOUTH       FAIR      29  26  88 CALM      30.24S
BERLIN         MOCLDY    29  22  75 CALM      30.23R
WHITEFIELD     FAIR      26  24  92 CALM      30.24R
JAFFREY        FAIR      33  32  96 CALM      30.23R
KEENE          FAIR      31  28  89 CALM      30.25R
LEBANON        FAIR      32  27  81 CALM      30.25R
MT WASHINGTON  PTCLDY    14   5  67 NW39        N/A  WCI  -9
$$

VTZ005-007-008-250300-
VERMONT

CITY           SKY/WX    TMP DP  RH WIND       PRES   REMARKS
ST JOHNSBURY     N/A     29  26  89 MISG      30.25R
MONTPELIER     FAIR      27  24  89 NW3       30.27R
BURLINGTON     FAIR      31  23  72 CALM      30.29R
$$

MAZ007-012-024-CTZ003-RIZ002-NYZ038-NYZ072-250300-
SOUTHERN NEW ENGLAND AND NY

CITY           SKY/WX    TMP DP  RH WIND       PRES   REMARKS
BOSTON         MOCLDY    44  32  62 N8        30.25R
WORCESTER      FAIR      40  30  67 N9        30.21R
NANTUCKET      LGT RAIN  42  42 100 N6        30.21R FOG
PROVIDENCE     CLOUDY    44  41  89 NW3       30.23R
HARTFORD       MOCLDY    41  36  82 CALM      30.23R
ALBANY         MOCLDY    35  29  78 CALM      30.25R
NEW YORK CITY  LGT RAIN  45  42  89 NE8       30.21R FOG
$$

ANZ081-ANZ082-ANZ150-NHZ014-MEZ023>029-250300-
COASTAL MARINE OBSERVATIONS

STATION/POSITION TIME  TEMP    WIND        PRES    WAVE
                       AIR SEA DIR/SP/G            HT/PER
                 (UTC) (F)     (DEG/KT/KT) (MB)    (FT/S)
MOUNT DESERT ROC 0200   39     320/ 23/ 26 1023.4R
MATINICUS ROCK   0100   40     330/ 16/ 19 1021.9R
ISLE OF SHOALS   0100   44     340/ 12/ 13 1022.9R
JEFFREYS LEDGE   0106      41                N/A     2/ 6
GEORGES BANK BUO 0050   44 57              1008.5   15/ 9
$$

.............KEY..............
   WCI - WIND CHILL
   TC  - TEMPERATURE IN CELSIUS
   VSB - VISIBILITY IN MILES
   HX  - HEAT INDEX
   FAIR- INDICATES FEW OR NO CLOUDS BELOW 12,000 FT, WITH NO
         SIGNIFICANT WEATHER AND/OR OBSTRUCTIONS TO VISIBILITY.






USA.gov is the U.S. government's official web portal to all federal, state and local government web resources and services.